| time (UTC) | temp C | wind direction | speed KPH | gust KPH | rain 1hr cm | rain 24hr cm | rain mn cm | humidity % | barometer mb |
| 20260906121056 | 23 | 93 | 0.0 | 4.8 | 0.00 | 0.00 | 0.00 | 88 | 1012.1 |
| 20260906120551 | 22 | 50 | 3.2 | 3.2 | 0.00 | 0.00 | 0.00 | 90 | 1012.0 |
| 20260906120049 | 22 | 40 | 3.2 | 4.8 | 0.00 | 0.00 | 0.00 | 90 | 1011.9 |
| 20260906115548 | 22 | 64 | 1.6 | 3.2 | 0.00 | 0.00 | 0.00 | 91 | 1011.5 |
| 20260906115043 | 22 | 88 | 1.6 | 4.8 | 0.00 | 0.00 | 0.00 | 91 | 1011.8 |
| 20260906114537 | 22 | 87 | 1.6 | 3.2 | 0.00 | 0.00 | 0.00 | 91 | 1011.6 |
| 20260906114033 | 22 | 86 | 3.2 | 3.2 | 0.00 | 0.00 | 0.00 | 90 | 1011.6 |
| 20260906113532 | 22 | 84 | 1.6 | 3.2 | 0.00 | 0.00 | 0.00 | 90 | 1011.5 |
| 20260906113028 | 22 | 57 | 3.2 | 3.2 | 0.00 | 0.00 | 0.00 | 90 | 1011.6 |
| 20260906112522 | 22 | 77 | 3.2 | 4.8 | 0.00 | 0.00 | 0.00 | 90 | 1011.5 |
| 20260906112019 | 22 | 63 | 0.0 | 3.2 | 0.00 | 0.00 | 0.00 | 89 | 1011.4 |
| 20260906111513 | 22 | 55 | 1.6 | 3.2 | 0.00 | 0.00 | 0.00 | 89 | 1011.4 |
| 20260906111008 | 22 | 79 | 3.2 | 3.2 | 0.00 | 0.00 | 0.00 | 89 | 1011.3 |
| 20260906110502 | 22 | 60 | 3.2 | 3.2 | 0.00 | 0.00 | 0.00 | 89 | 1011.3 |
| 20260906110001 | 22 | 47 | 3.2 | 4.8 | 0.00 | 0.00 | 0.00 | 88 | 1011.2 |
| 20260906105458 | 22 | 66 | 3.2 | 3.2 | 0.00 | 0.00 | 0.00 | 88 | 1011.2 |
| 20260906104953 | 22 | 88 | 3.2 | 3.2 | 0.00 | 0.00 | 0.00 | 88 | 1011.2 |
| 20260906104451 | 22 | 339 | 1.6 | 3.2 | 0.00 | 0.00 | 0.00 | 88 | 1011.3 |
| 20260906103951 | 22 | 63 | 0.0 | 4.8 | 0.00 | 0.00 | 0.00 | 87 | 1011.3 |
| 20260906103449 | 22 | 79 | 3.2 | 4.8 | 0.00 | 0.00 | 0.00 | 87 | 1011.1 |
| 20260906102944 | 22 | 76 | 1.6 | 3.2 | 0.00 | 0.00 | 0.00 | 87 | 1011.1 |
| 20260906102439 | 22 | 54 | 3.2 | 4.8 | 0.00 | 0.00 | 0.00 | 87 | 1011.0 |
| 20260906101939 | 22 | 62 | 3.2 | 3.2 | 0.00 | 0.00 | 0.00 | 86 | 1011.3 |
| 20260906101434 | 22 | 92 | 1.6 | 4.8 | 0.00 | 0.00 | 0.00 | 86 | 1011.3 |
| 20260906100929 | 22 | 66 | 1.6 | 3.2 | 0.00 | 0.00 | 0.00 | 85 | 1011.2 |
| 20260906100429 | 23 | 70 | 3.2 | 3.2 | 0.00 | 0.00 | 0.00 | 85 | 1011.2 |
| 20260906095924 | 23 | 67 | 3.2 | 4.8 | 0.00 | 0.00 | 0.00 | 84 | 1011.0 |
| 20260906095420 | 23 | 69 | 3.2 | 3.2 | 0.00 | 0.00 | 0.00 | 84 | 1011.0 |
| 20260906094920 | 23 | 79 | 3.2 | 3.2 | 0.00 | 0.00 | 0.00 | 84 | 1011.0 |
| 20260906094414 | 23 | 66 | 3.2 | 4.8 | 0.00 | 0.00 | 0.00 | 83 | 1011.0 |
| 20260906093910 | 23 | 33 | 1.6 | 4.8 | 0.00 | 0.00 | 0.00 | 83 | 1010.9 |
| 20260906093407 | 23 | 72 | 1.6 | 4.8 | 0.00 | 0.00 | 0.00 | 82 | 1010.8 |
| 20260906092901 | 23 | 87 | 3.2 | 4.8 | 0.00 | 0.00 | 0.00 | 82 | 1010.9 |
| 20260906092400 | 23 | 13 | 0.0 | 1.6 | 0.00 | 0.00 | 0.00 | 83 | 1010.9 |
| 20260906091856 | 23 | 104 | 0.0 | 3.2 | 0.00 | 0.00 | 0.00 | 82 | 1011.0 |
| 20260906091352 | 23 | 35 | 0.0 | 3.2 | 0.00 | 0.00 | 0.00 | 82 | 1011.0 |
| 20260906090848 | 23 | 82 | 3.2 | 4.8 | 0.00 | 0.00 | 0.00 | 81 | 1011.0 |
| 20260906090347 | 23 | 76 | 0.0 | 3.2 | 0.00 | 0.00 | 0.00 | 81 | 1010.9 |
| 20260906085842 | 23 | 48 | 1.6 | 3.2 | 0.00 | 0.00 | 0.00 | 80 | 1011.0 |
| 20260906085341 | 24 | 69 | 4.8 | 4.8 | 0.00 | 0.00 | 0.00 | 80 | 1011.0 |
| 20260906084836 | 24 | 56 | 1.6 | 3.2 | 0.00 | 0.00 | 0.00 | 80 | 1011.0 |
| 20260906084336 | 24 | 103 | 3.2 | 6.4 | 0.00 | 0.00 | 0.00 | 80 | 1010.9 |
| 20260906083830 | 23 | 198 | 0.0 | 6.4 | 0.00 | 0.00 | 0.00 | 82 | 1011.0 |
| 20260906083326 | 23 | 42 | 3.2 | 3.2 | 0.00 | 0.00 | 0.00 | 83 | 1010.9 |
| 20260906082826 | 23 | 103 | 1.6 | 3.2 | 0.00 | 0.00 | 0.00 | 83 | 1010.9 |
| 20260906082321 | 23 | 89 | 0.0 | 1.6 | 0.00 | 0.00 | 0.00 | 82 | 1010.9 |
| 20260906081817 | 23 | 238 | 0.0 | 3.2 | 0.00 | 0.00 | 0.00 | 82 | 1011.0 |
| 20260906081313 | 23 | 117 | 3.2 | 4.8 | 0.00 | 0.00 | 0.00 | 82 | 1010.7 |
| 20260906080809 | 24 | 74 | 0.0 | 3.2 | 0.00 | 0.00 | 0.00 | 81 | 1010.9 |
| 20260906080305 | 24 | 96 | 3.2 | 3.2 | 0.00 | 0.00 | 0.00 | 81 | 1010.8 |
| 20260906075804 | 24 | 91 | 0.0 | 4.8 | 0.00 | 0.00 | 0.00 | 80 | 1010.8 |
| 20260906075306 | 24 | 20 | 1.6 | 3.2 | 0.00 | 0.00 | 0.00 | 80 | 1010.8 |
| 20260906074759 | 24 | 320 | 1.6 | 6.4 | 0.00 | 0.00 | 0.00 | 80 | 1010.9 |
| 20260906074259 | 24 | 101 | 0.0 | 6.4 | 0.00 | 0.00 | 0.00 | 79 | 1010.9 |
| 20260906073758 | 24 | 18 | 0.0 | 4.8 | 0.00 | 0.00 | 0.00 | 79 | 1010.9 |
| 20260906073253 | 24 | 128 | 3.2 | 8.0 | 0.00 | 0.00 | 0.00 | 78 | 1011.0 |
| 20260906072749 | 24 | 168 | 1.6 | 4.8 | 0.00 | 0.00 | 0.00 | 77 | 1011.0 |
| 20260906072244 | 25 | 75 | 1.6 | 3.2 | 0.00 | 0.00 | 0.00 | 77 | 1011.0 |
| 20260906071740 | 25 | 106 | 0.0 | 3.2 | 0.00 | 0.00 | 0.00 | 77 | 1011.0 |
| 20260906071240 | 25 | 128 | 1.6 | 4.8 | 0.00 | 0.00 | 0.00 | 76 | 1011.0 |
| 20260906070737 | 25 | 79 | 3.2 | 3.2 | 0.00 | 0.00 | 0.00 | 76 | 1011.0 |
| 20260906070232 | 25 | 94 | 0.0 | 4.8 | 0.00 | 0.00 | 0.00 | 75 | 1011.4 |
| 20260906065732 | 25 | 68 | 1.6 | 3.2 | 0.00 | 0.00 | 0.00 | 75 | 1011.1 |
| 20260906065227 | 25 | 107 | 4.8 | 4.8 | 0.00 | 0.00 | 0.00 | 75 | 1011.2 |
| 20260906064723 | 25 | 66 | 1.6 | 3.2 | 0.00 | 0.00 | 0.00 | 74 | 1011.1 |
| 20260906064218 | 25 | 70 | 0.0 | 1.6 | 0.00 | 0.00 | 0.00 | 73 | 1011.1 |
| 20260906063713 | 25 | 63 | 1.6 | 3.2 | 0.00 | 0.00 | 0.00 | 73 | 1011.2 |
| 20260906063209 | 25 | 136 | 3.2 | 4.8 | 0.00 | 0.00 | 0.00 | 72 | 1011.1 |
| 20260906062704 | 26 | 127 | 3.2 | 6.4 | 0.00 | 0.00 | 0.00 | 71 | 1011.1 |
| 20260906062203 | 26 | 159 | 4.8 | 9.7 | 0.00 | 0.00 | 0.00 | 70 | 1011.4 |
| 20260906061659 | 26 | 121 | 8.0 | 9.7 | 0.00 | 0.00 | 0.00 | 69 | 1011.4 |
| 20260906061154 | 26 | 112 | 3.2 | 6.4 | 0.00 | 0.00 | 0.00 | 69 | 1011.3 |
| 20260906060651 | 26 | 127 | 3.2 | 4.8 | 0.00 | 0.00 | 0.00 | 69 | 1011.5 |
| 20260906060148 | 26 | 136 | 4.8 | 6.4 | 0.00 | 0.00 | 0.00 | 69 | 1011.9 |
| 20260906055643 | 26 | 168 | 4.8 | 6.4 | 0.00 | 0.00 | 0.00 | 71 | 1011.9 |
| 20260906055138 | 26 | 204 | 1.6 | 6.4 | 0.00 | 0.00 | 0.00 | 73 | 1011.9 |
| 20260906054633 | 26 | 111 | 6.4 | 11.3 | 0.00 | 0.00 | 0.00 | 73 | 1012.0 |
| 20260906054128 | 26 | 154 | 3.2 | 9.7 | 0.00 | 0.00 | 0.00 | 73 | 1012.1 |
| 20260906053626 | 26 | 92 | 1.6 | 4.8 | 0.00 | 0.00 | 0.00 | 74 | 1012.1 |
| 20260906053126 | 26 | 139 | 4.8 | 6.4 | 0.00 | 0.00 | 0.00 | 73 | 1012.1 |
| 20260906052621 | 26 | 198 | 3.2 | 6.4 | 0.00 | 0.00 | 0.00 | 73 | 1012.0 |
| 20260906052118 | 27 | 101 | 1.6 | 9.7 | 0.00 | 0.00 | 0.00 | 73 | 1011.9 |
| 20260906051613 | 26 | 58 | 3.2 | 12.9 | 0.00 | 0.00 | 0.00 | 72 | 1012.0 |
| 20260906051109 | 26 | 51 | 3.2 | 9.7 | 0.00 | 0.00 | 0.00 | 72 | 1012.0 |
| 20260906050604 | 26 | 72 | 6.4 | 9.7 | 0.00 | 0.00 | 0.00 | 71 | 1011.8 |
| 20260906050059 | 26 | 55 | 9.7 | 9.7 | 0.00 | 0.00 | 0.00 | 70 | 1012.0 |
| 20260906045557 | 27 | 76 | 4.8 | 9.7 | 0.00 | 0.00 | 0.00 | 70 | 1012.0 |
| 20260906045053 | 27 | 83 | 6.4 | 11.3 | 0.00 | 0.00 | 0.00 | 69 | 1012.0 |
| 20260906044548 | 27 | 33 | 3.2 | 8.0 | 0.00 | 0.00 | 0.00 | 72 | 1012.0 |
| 20260906044043 | 27 | 84 | 6.4 | 9.7 | 0.00 | 0.00 | 0.00 | 74 | 1011.7 |
| 20260906043539 | 27 | 29 | 3.2 | 6.4 | 0.00 | 0.00 | 0.00 | 73 | 1012.1 |
| 20260906043036 | 27 | 35 | 3.2 | 4.8 | 0.00 | 0.00 | 0.00 | 73 | 1011.6 |
| 20260906042534 | 27 | 119 | 3.2 | 4.8 | 0.00 | 0.00 | 0.00 | 73 | 1011.5 |
| 20260906042029 | 27 | 103 | 0.0 | 3.2 | 0.00 | 0.00 | 0.00 | 73 | 1011.1 |
| 20260906041525 | 27 | 62 | 1.6 | 8.0 | 0.00 | 0.00 | 0.00 | 74 | 1011.3 |
| 20260906041025 | 27 | 39 | 6.4 | 9.7 | 0.00 | 0.00 | 0.00 | 74 | 1011.4 |
| 20260906040520 | 27 | 50 | 3.2 | 9.7 | 0.00 | 0.00 | 0.00 | 74 | 1011.4 |
| 20260906040015 | 27 | 46 | 9.7 | 12.9 | 0.00 | 0.00 | 0.00 | 74 | 1011.2 |
| 20260906035511 | 27 | 49 | 3.2 | 9.7 | 0.00 | 0.00 | 0.00 | 74 | 1011.2 |
| 20260906035007 | 27 | 49 | 4.8 | 9.7 | 0.00 | 0.00 | 0.00 | 73 | 1011.4 |
| 20260906034506 | 27 | 72 | 3.2 | 8.0 | 0.00 | 0.00 | 0.00 | 72 | 1011.5 |
| 20260906034001 | 27 | 96 | 3.2 | 6.4 | 0.00 | 0.00 | 0.00 | 72 | 1011.5 |
| 20260906033456 | 27 | 93 | 4.8 | 8.0 | 0.00 | 0.00 | 0.00 | 72 | 1011.4 |
| 20260906032952 | 27 | 95 | 3.2 | 6.4 | 0.00 | 0.00 | 0.00 | 72 | 1011.5 |
| 20260906032449 | 27 | 17 | 3.2 | 6.4 | 0.00 | 0.00 | 0.00 | 73 | 1011.8 |
| 20260906031948 | 27 | 57 | 4.8 | 6.4 | 0.00 | 0.00 | 0.00 | 74 | 1011.6 |
| 20260906031444 | 27 | 65 | 4.8 | 6.4 | 0.00 | 0.00 | 0.00 | 73 | 1011.5 |
| 20260906030939 | 27 | 8 | 3.2 | 3.2 | 0.00 | 0.00 | 0.00 | 72 | 1010.9 |
| 20260906030434 | 28 | 76 | 1.6 | 4.8 | 0.00 | 0.00 | 0.00 | 70 | 1010.8 |
| 20260906025934 | 28 | 33 | 3.2 | 4.8 | 0.00 | 0.00 | 0.00 | 69 | 1011.0 |
| 20260906025428 | 28 | 69 | 0.0 | 3.2 | 0.00 | 0.00 | 0.00 | 67 | 1010.9 |
| 20260906024927 | 28 | 58 | 1.6 | 3.2 | 0.00 | 0.00 | 0.00 | 67 | 1010.7 |
| 20260906024426 | 28 | 39 | 1.6 | 3.2 | 0.00 | 0.00 | 0.00 | 68 | 1010.9 |
| 20260906023922 | 28 | 61 | 3.2 | 3.2 | 0.00 | 0.00 | 0.00 | 67 | 1010.5 |
| 20260906023418 | 28 | 7 | 0.0 | 3.2 | 0.00 | 0.00 | 0.00 | 69 | 1010.5 |
| 20260906022918 | 28 | 274 | 0.0 | 3.2 | 0.00 | 0.00 | 0.00 | 65 | 1010.2 |
| 20260906022413 | 28 | 44 | 3.2 | 3.2 | 0.00 | 0.00 | 0.00 | 66 | 1010.0 |
| 20260906021908 | 28 | 118 | 3.2 | 3.2 | 0.00 | 0.00 | 0.00 | 64 | 1010.2 |
| 20260906021409 | 29 | 99 | 3.2 | 3.2 | 0.00 | 0.00 | 0.00 | 63 | 1010.3 |
| 20260906020903 | 29 | 246 | 0.0 | 0.0 | 0.00 | 0.00 | 0.00 | 61 | 1010.5 |
| 20260906020403 | 29 | 81 | 0.0 | 3.2 | 0.00 | 0.00 | 0.00 | 61 | 1010.5 |
| 20260906015857 | 29 | 4 | 3.2 | 4.8 | 0.00 | 0.00 | 0.00 | 61 | 1010.5 |
| 20260906015356 | 29 | 17 | 1.6 | 4.8 | 0.00 | 0.00 | 0.00 | 60 | 1009.9 |
| 20260906014856 | 29 | 346 | 3.2 | 4.8 | 0.00 | 0.00 | 0.00 | 60 | 1010.1 |
| 20260906014356 | 29 | 356 | 3.2 | 3.2 | 0.00 | 0.00 | 0.00 | 59 | 1009.6 |
| 20260906013853 | 29 | 15 | 3.2 | 3.2 | 0.00 | 0.00 | 0.00 | 60 | 1009.7 |
| 20260906013348 | 29 | 69 | 0.0 | 3.2 | 0.00 | 0.00 | 0.00 | 60 | 1009.7 |
| 20260906012843 | 29 | 128 | 0.0 | 3.2 | 0.00 | 0.00 | 0.00 | 62 | 1010.0 |
| 20260906012338 | 29 | 174 | 1.6 | 3.2 | 0.00 | 0.00 | 0.00 | 61 | 1009.8 |
| 20260906011838 | 28 | 63 | 0.0 | 3.2 | 0.00 | 0.00 | 0.00 | 63 | 1010.0 |
| 20260906011333 | 28 | 126 | 1.6 | 3.2 | 0.00 | 0.00 | 0.00 | 63 | 1010.0 |
| 20260906010829 | 29 | 11 | 0.0 | 3.2 | 0.00 | 0.00 | 0.00 | 62 | 1009.9 |
| 20260906010325 | 29 | 117 | 0.0 | 1.6 | 0.00 | 0.00 | 0.00 | 60 | 1009.6 |
| 20260906005820 | 30 | 351 | 0.0 | 3.2 | 0.00 | 0.00 | 0.00 | 60 | 1009.6 |
| 20260906005319 | 30 | 302 | 0.0 | 3.2 | 0.00 | 0.00 | 0.00 | 61 | 1009.5 |
| 20260906004818 | 30 | 21 | 0.0 | 3.2 | 0.00 | 0.00 | 0.00 | 59 | 1009.6 |
| 20260906004318 | 30 | 64 | 8.0 | 9.7 | 0.00 | 0.00 | 0.00 | 59 | 1009.9 |
| 20260906003813 | 30 | 0 | 0.0 | 3.2 | 0.00 | 0.00 | 0.00 | 59 | 1009.9 |
| 20260906003308 | 30 | 83 | 3.2 | 8.0 | 0.00 | 0.00 | 0.00 | 58 | 1010.0 |
| 20260906002804 | 30 | 86 | 1.6 | 12.9 | 0.00 | 0.00 | 0.00 | 57 | 1010.2 |
| 20260906002306 | 31 | 30 | 3.2 | 14.5 | 0.00 | 0.00 | 0.00 | 57 | 1010.0 |
| 20260906001759 | 31 | 46 | 6.4 | 11.3 | 0.00 | 0.00 | 0.00 | 58 | 1010.2 |
| 20260906001254 | 31 | 42 | 8.0 | 17.7 | 0.00 | 0.00 | 0.00 | 60 | 1010.0 |
| 20260906000750 | 32 | 100 | 9.7 | 14.5 | 0.00 | 0.00 | 0.00 | 59 | 1010.2 |
| 20260906000250 | 32 | 54 | 9.7 | 12.9 | 0.00 | 0.00 | 0.00 | 58 | 1010.0 |
| 20260905235745 | 33 | 52 | 3.2 | 14.5 | 0.00 | 0.00 | 0.00 | 57 | 1010.0 |
| 20260905235244 | 34 | 27 | 9.7 | 20.9 | 0.00 | 0.00 | 0.00 | 54 | 1010.1 |
| 20260905234740 | 35 | 57 | 3.2 | 4.8 | 0.00 | 0.00 | 0.00 | 53 | 1009.7 |
| 20260905234235 | 35 | 57 | 0.0 | 3.2 | 0.00 | 0.00 | 0.00 | 50 | 1009.5 |
| 20260905233730 | 35 | 8 | 1.6 | 3.2 | 0.00 | 0.00 | 0.00 | 51 | 1009.3 |
| 20260905233230 | 35 | 323 | 0.0 | 1.6 | 0.00 | 0.00 | 0.00 | 49 | 1009.4 |
| 20260905232724 | 35 | 279 | 1.6 | 4.8 | 0.00 | 0.00 | 0.00 | 47 | 1009.3 |
| 20260905232220 | 35 | 335 | 0.0 | 4.8 | 0.00 | 0.00 | 0.00 | 47 | 1009.2 |
| 20260905231716 | 35 | 327 | 3.2 | 3.2 | 0.00 | 0.00 | 0.00 | 48 | 1009.1 |
| 20260905231211 | 35 | 264 | 3.2 | 4.8 | 0.00 | 0.00 | 0.00 | 46 | 1009.1 |
| 20260905230707 | 35 | 252 | 1.6 | 4.8 | 0.00 | 0.00 | 0.00 | 46 | 1009.1 |
| 20260905230205 | 36 | 279 | 3.2 | 8.0 | 0.00 | 0.00 | 0.00 | 46 | 1009.1 |
| 20260905225705 | 36 | 278 | 3.2 | 4.8 | 0.00 | 0.00 | 0.00 | 46 | 1009.2 |
| 20260905225200 | 36 | 263 | 1.6 | 6.4 | 0.00 | 0.00 | 0.00 | 45 | 1009.2 |
| 20260905224659 | 36 | 257 | 0.0 | 4.8 | 0.00 | 0.00 | 0.00 | 44 | 1009.1 |
| 20260905224153 | 36 | 271 | 1.6 | 4.8 | 0.00 | 0.00 | 0.00 | 44 | 1009.1 |
| 20260905223650 | 36 | 315 | 4.8 | 6.4 | 0.00 | 0.00 | 0.00 | 43 | 1009.2 |
| 20260905223148 | 36 | 277 | 0.0 | 3.2 | 0.00 | 0.00 | 0.00 | 43 | 1009.1 |
| 20260905222643 | 36 | 328 | 0.0 | 4.8 | 0.00 | 0.00 | 0.00 | 43 | 1009.1 |
| 20260905222143 | 37 | 254 | 3.2 | 4.8 | 0.00 | 0.00 | 0.00 | 42 | 1009.2 |
| 20260905221638 | 37 | 307 | 1.6 | 3.2 | 0.00 | 0.00 | 0.00 | 44 | 1008.9 |
| 20260905221135 | 37 | 226 | 4.8 | 9.7 | 0.00 | 0.00 | 0.00 | 40 | 1009.0 |
| 20260905220630 | 38 | 272 | 3.2 | 6.4 | 0.00 | 0.00 | 0.00 | 40 | 1009.2 |
| 20260905220126 | 38 | 242 | 1.6 | 6.4 | 0.00 | 0.00 | 0.00 | 39 | 1009.3 |
| 20260905215626 | 38 | 231 | 4.8 | 4.8 | 0.00 | 0.00 | 0.00 | 38 | 1009.1 |
| 20260905215121 | 38 | 298 | 3.2 | 4.8 | 0.00 | 0.00 | 0.00 | 39 | 1009.2 |
| 20260905214618 | 38 | 267 | 6.4 | 6.4 | 0.00 | 0.00 | 0.00 | 38 | 1009.0 |
| 20260905214117 | 38 | 14 | 0.0 | 8.0 | 0.00 | 0.00 | 0.00 | 40 | 1009.2 |
| 20260905213613 | 38 | 276 | 3.2 | 8.0 | 0.00 | 0.00 | 0.00 | 38 | 1009.2 |
| 20260905213108 | 39 | 304 | 6.4 | 6.4 | 0.00 | 0.00 | 0.00 | 37 | 1009.2 |
| 20260905212609 | 39 | 245 | 3.2 | 4.8 | 0.00 | 0.00 | 0.00 | 39 | 1009.2 |
| 20260905212108 | 38 | 221 | 3.2 | 8.0 | 0.00 | 0.00 | 0.00 | 40 | 1009.2 |
| 20260905211603 | 38 | 281 | 3.2 | 6.4 | 0.00 | 0.00 | 0.00 | 41 | 1009.4 |
| 20260905211059 | 39 | 263 | 8.0 | 9.7 | 0.00 | 0.00 | 0.00 | 39 | 1009.5 |
| 20260905210554 | 39 | 266 | 3.2 | 4.8 | 0.00 | 0.00 | 0.00 | 40 | 1009.4 |
| 20260905210049 | 38 | 217 | 0.0 | 6.4 | 0.00 | 0.00 | 0.00 | 40 | 1009.6 |
| 20260905205549 | 38 | 273 | 4.8 | 8.0 | 0.00 | 0.00 | 0.00 | 42 | 1009.7 |
| 20260905205048 | 38 | 262 | 3.2 | 8.0 | 0.00 | 0.00 | 0.00 | 41 | 1009.6 |
| 20260905204543 | 38 | 233 | 3.2 | 6.4 | 0.00 | 0.00 | 0.00 | 42 | 1009.6 |
| 20260905204038 | 38 | 223 | 3.2 | 8.0 | 0.00 | 0.00 | 0.00 | 41 | 1009.6 |
| 20260905203538 | 38 | 263 | 4.8 | 9.7 | 0.00 | 0.00 | 0.00 | 40 | 1009.8 |
| 20260905203033 | 38 | 214 | 1.6 | 8.0 | 0.00 | 0.00 | 0.00 | 41 | 1009.8 |
| 20260905202528 | 39 | 271 | 1.6 | 8.0 | 0.00 | 0.00 | 0.00 | 41 | 1010.0 |
| 20260905202024 | 38 | 223 | 3.2 | 6.4 | 0.00 | 0.00 | 0.00 | 39 | 1009.9 |
| 20260905201520 | 38 | 229 | 1.6 | 8.0 | 0.00 | 0.00 | 0.00 | 40 | 1010.0 |
| 20260905201019 | 38 | 265 | 4.8 | 9.7 | 0.00 | 0.00 | 0.00 | 41 | 1009.9 |
| 20260905200515 | 38 | 240 | 3.2 | 12.9 | 0.00 | 0.00 | 0.00 | 40 | 1010.3 |
| 20260905200015 | 39 | 275 | 4.8 | 8.0 | 0.00 | 0.00 | 0.00 | 40 | 1010.3 |
| 20260905195514 | 38 | 302 | 0.0 | 4.8 | 0.00 | 0.00 | 0.00 | 42 | 1010.6 |
| 20260905195010 | 38 | 226 | 1.6 | 4.8 | 0.00 | 0.00 | 0.00 | 42 | 1010.6 |
| 20260905194509 | 38 | 230 | 4.8 | 9.7 | 0.00 | 0.00 | 0.00 | 43 | 1010.6 |
| 20260905194009 | 38 | 238 | 3.2 | 9.7 | 0.00 | 0.00 | 0.00 | 42 | 1010.7 |
| 20260905193504 | 38 | 216 | 4.8 | 9.7 | 0.00 | 0.00 | 0.00 | 42 | 1010.8 |
| 20260905192959 | 38 | 226 | 1.6 | 6.4 | 0.00 | 0.00 | 0.00 | 43 | 1010.6 |
| 20260905192454 | 37 | 177 | 3.2 | 8.0 | 0.00 | 0.00 | 0.00 | 43 | 1010.9 |
| 20260905191950 | 38 | 221 | 9.7 | 9.7 | 0.00 | 0.00 | 0.00 | 41 | 1010.8 |
| 20260905191444 | 38 | 307 | 1.6 | 3.2 | 0.00 | 0.00 | 0.00 | 43 | 1010.9 |
| 20260905190943 | 37 | 189 | 1.6 | 9.7 | 0.00 | 0.00 | 0.00 | 44 | 1011.0 |
| 20260905190441 | 37 | 148 | 1.6 | 6.4 | 0.00 | 0.00 | 0.00 | 45 | 1011.2 |
| 20260905185940 | 37 | 295 | 4.8 | 6.4 | 0.00 | 0.00 | 0.00 | 46 | 1011.0 |
| 20260905185435 | 37 | 266 | 3.2 | 4.8 | 0.00 | 0.00 | 0.00 | 46 | 1011.1 |
| 20260905184933 | 37 | 262 | 6.4 | 8.0 | 0.00 | 0.00 | 0.00 | 45 | 1011.3 |
| 20260905184428 | 37 | 138 | 3.2 | 6.4 | 0.00 | 0.00 | 0.00 | 46 | 1011.5 |
| 20260905183927 | 36 | 255 | 0.0 | 6.4 | 0.00 | 0.00 | 0.00 | 47 | 1011.3 |
| 20260905183422 | 37 | 14 | 4.8 | 11.3 | 0.00 | 0.00 | 0.00 | 46 | 1011.6 |
| 20260905182917 | 37 | 127 | 0.0 | 6.4 | 0.00 | 0.00 | 0.00 | 49 | 1011.8 |
| 20260905182416 | 37 | 10 | 0.0 | 4.8 | 0.00 | 0.00 | 0.00 | 47 | 1011.9 |
| 20260905181912 | 37 | 102 | 0.0 | 3.2 | 0.00 | 0.00 | 0.00 | 48 | 1011.9 |
| 20260905181412 | 37 | 247 | 1.6 | 4.8 | 0.00 | 0.00 | 0.00 | 49 | 1012.0 |
| 20260905180911 | 37 | 124 | 4.8 | 4.8 | 0.00 | 0.00 | 0.00 | 48 | 1012.1 |
| 20260905180407 | 36 | 260 | 3.2 | 3.2 | 0.00 | 0.00 | 0.00 | 50 | 1012.1 |
| 20260905175907 | 36 | 86 | 0.0 | 8.0 | 0.00 | 0.00 | 0.00 | 49 | 1012.1 |
| 20260905175407 | 36 | 218 | 0.0 | 6.4 | 0.00 | 0.00 | 0.00 | 48 | 1012.0 |
| 20260905174907 | 36 | 265 | 0.0 | 6.4 | 0.00 | 0.00 | 0.00 | 52 | 1012.2 |
| 20260905174403 | 36 | 231 | 4.8 | 6.4 | 0.00 | 0.00 | 0.00 | 50 | 1012.3 |
| 20260905173858 | 36 | 216 | 6.4 | 8.0 | 0.00 | 0.00 | 0.00 | 51 | 1012.3 |
| 20260905173354 | 36 | 123 | 1.6 | 6.4 | 0.00 | 0.00 | 0.00 | 51 | 1012.3 |
| 20260905172849 | 36 | 357 | 0.0 | 4.8 | 0.00 | 0.00 | 0.00 | 50 | 1012.4 |
| 20260905172347 | 36 | 316 | 0.0 | 4.8 | 0.00 | 0.00 | 0.00 | 52 | 1012.5 |
| 20260905171843 | 36 | 286 | 4.8 | 6.4 | 0.00 | 0.00 | 0.00 | 53 | 1012.5 |
| 20260905171340 | 36 | 246 | 1.6 | 6.4 | 0.00 | 0.00 | 0.00 | 55 | 1012.4 |
| 20260905170836 | 35 | 256 | 1.6 | 6.4 | 0.00 | 0.00 | 0.00 | 54 | 1012.7 |
| 20260905170332 | 35 | 219 | 6.4 | 6.4 | 0.00 | 0.00 | 0.00 | 54 | 1012.5 |
| 20260905165831 | 35 | 218 | 4.8 | 8.0 | 0.00 | 0.00 | 0.00 | 54 | 1012.5 |
| 20260905165326 | 35 | 280 | 4.8 | 6.4 | 0.00 | 0.00 | 0.00 | 54 | 1012.8 |
| 20260905164827 | 35 | 185 | 1.6 | 6.4 | 0.00 | 0.00 | 0.00 | 54 | 1012.8 |
| 20260905164326 | 35 | 259 | 4.8 | 6.4 | 0.00 | 0.00 | 0.00 | 56 | 1012.9 |
| 20260905163822 | 34 | 217 | 0.0 | 4.8 | 0.00 | 0.00 | 0.00 | 55 | 1013.0 |
| 20260905163319 | 33 | 225 | 4.8 | 8.0 | 0.00 | 0.00 | 0.00 | 57 | 1013.0 |
| 20260905162814 | 33 | 274 | 3.2 | 4.8 | 0.00 | 0.00 | 0.00 | 56 | 1013.1 |
| 20260905162309 | 33 | 269 | 3.2 | 4.8 | 0.00 | 0.00 | 0.00 | 57 | 1013.2 |
| 20260905161809 | 33 | 211 | 3.2 | 6.4 | 0.00 | 0.00 | 0.00 | 58 | 1013.1 |
| 20260905161308 | 33 | 234 | 3.2 | 4.8 | 0.00 | 0.00 | 0.00 | 61 | 1013.3 |
| 20260905160806 | 33 | 279 | 3.2 | 6.4 | 0.00 | 0.00 | 0.00 | 61 | 1013.3 |
| 20260905160300 | 33 | 258 | 3.2 | 6.4 | 0.00 | 0.00 | 0.00 | 59 | 1013.4 |
| 20260905155755 | 32 | 286 | 3.2 | 4.8 | 0.00 | 0.00 | 0.00 | 61 | 1013.4 |
| 20260905155254 | 32 | 303 | 1.6 | 6.4 | 0.00 | 0.00 | 0.00 | 61 | 1013.4 |
| 20260905154748 | 32 | 104 | 0.0 | 3.2 | 0.00 | 0.00 | 0.00 | 66 | 1013.6 |
| 20260905154245 | 31 | 319 | 0.0 | 6.4 | 0.00 | 0.00 | 0.00 | 64 | 1013.5 |
| 20260905153740 | 31 | 264 | 0.0 | 4.8 | 0.00 | 0.00 | 0.00 | 67 | 1013.5 |
| 20260905153236 | 31 | 110 | 3.2 | 3.2 | 0.00 | 0.00 | 0.00 | 69 | 1013.8 |
| 20260905152731 | 31 | 294 | 0.0 | 3.2 | 0.00 | 0.00 | 0.00 | 71 | 1013.7 |
| 20260905152230 | 31 | 129 | 3.2 | 4.8 | 0.00 | 0.00 | 0.00 | 68 | 1013.7 |
| 20260905151730 | 31 | 124 | 0.0 | 4.8 | 0.00 | 0.00 | 0.00 | 70 | 1013.5 |
| 20260905151226 | 30 | 119 | 3.2 | 4.8 | 0.00 | 0.00 | 0.00 | 72 | 1013.6 |
| 20260905150721 | 29 | 106 | 0.0 | 3.2 | 0.00 | 0.00 | 0.00 | 76 | 1013.7 |
| 20260905150220 | 28 | 221 | 0.0 | 1.6 | 0.00 | 0.00 | 0.00 | 79 | 1013.8 |
| 20260905145718 | 28 | 126 | 0.0 | 3.2 | 0.00 | 0.00 | 0.00 | 80 | 1013.8 |
| 20260905145213 | 28 | 295 | 3.2 | 3.2 | 0.00 | 0.00 | 0.00 | 79 | 1013.6 |
| 20260905144712 | 28 | 302 | 0.0 | 3.2 | 0.00 | 0.00 | 0.00 | 80 | 1013.7 |
| 20260905144211 | 28 | 265 | 0.0 | 3.2 | 0.00 | 0.00 | 0.00 | 80 | 1013.9 |
| 20260905143706 | 28 | 340 | 3.2 | 3.2 | 0.00 | 0.00 | 0.00 | 77 | 1013.8 |
| 20260905143206 | 28 | 340 | 3.2 | 3.2 | 0.00 | 0.00 | 0.00 | 77 | 1013.8 |
| 20260905142704 | 28 | 64 | 0.0 | 3.2 | 0.00 | 0.00 | 0.00 | 78 | 1013.7 |
| 20260905142205 | 28 | 333 | 0.0 | 1.6 | 0.00 | 0.00 | 0.00 | 80 | 1013.8 |
| 20260905141700 | 28 | 330 | 1.6 | 3.2 | 0.00 | 0.00 | 0.00 | 80 | 1013.8 |
| 20260905141156 | 28 | 53 | 0.0 | 1.6 | 0.00 | 0.00 | 0.00 | 82 | 1013.9 |
| 20260905140651 | 28 | 275 | 0.0 | 3.2 | 0.00 | 0.00 | 0.00 | 82 | 1013.9 |
| 20260905140150 | 27 | 116 | 1.6 | 3.2 | 0.00 | 0.00 | 0.00 | 82 | 1013.9 |
| 20260905135646 | 27 | 55 | 0.0 | 1.6 | 0.00 | 0.00 | 0.00 | 82 | 1013.8 |
| 20260905135141 | 27 | 118 | 3.2 | 3.2 | 0.00 | 0.00 | 0.00 | 83 | 1013.8 |
| 20260905134635 | 27 | 141 | 0.0 | 3.2 | 0.00 | 0.00 | 0.00 | 83 | 1013.8 |
| 20260905134134 | 27 | 94 | 1.6 | 3.2 | 0.00 | 0.00 | 0.00 | 85 | 1013.8 |
| 20260905133630 | 27 | 97 | 1.6 | 3.2 | 0.00 | 0.00 | 0.00 | 85 | 1014.0 |
| 20260905133130 | 27 | 77 | 1.6 | 3.2 | 0.00 | 0.00 | 0.00 | 85 | 1013.8 |
| 20260905132630 | 27 | 85 | 1.6 | 3.2 | 0.00 | 0.00 | 0.00 | 85 | 1013.8 |
| 20260905132125 | 27 | 100 | 0.0 | 3.2 | 0.00 | 0.00 | 0.00 | 86 | 1013.7 |
| 20260905131620 | 27 | 95 | 1.6 | 3.2 | 0.00 | 0.00 | 0.00 | 86 | 1013.8 |
| 20260905131115 | 27 | 131 | 1.6 | 3.2 | 0.00 | 0.00 | 0.00 | 86 | 1013.9 |
| 20260905130614 | 27 | 99 | 1.6 | 4.8 | 0.00 | 0.00 | 0.00 | 86 | 1014.0 |
| 20260905130109 | 26 | 103 | 1.6 | 3.2 | 0.00 | 0.00 | 0.00 | 87 | 1013.9 |
| 20260905125609 | 26 | 112 | 1.6 | 3.2 | 0.00 | 0.00 | 0.00 | 88 | 1013.8 |
| 20260905125104 | 26 | 100 | 3.2 | 3.2 | 0.00 | 0.00 | 0.00 | 90 | 1014.0 |
| 20260905124601 | 26 | 96 | 1.6 | 3.2 | 0.00 | 0.00 | 0.00 | 92 | 1014.0 |
| 20260905124056 | 26 | 98 | 0.0 | 1.6 | 0.00 | 0.00 | 0.00 | 93 | 1013.9 |
| 20260905123551 | 26 | 49 | 0.0 | 1.6 | 0.00 | 0.00 | 0.00 | 94 | 1014.0 |
| 20260905123049 | 25 | 89 | 0.0 | 3.2 | 0.00 | 0.00 | 0.00 | 95 | 1013.9 |
| 20260905122548 | 25 | 53 | 0.0 | 3.2 | 0.00 | 0.00 | 0.00 | 96 | 1013.7 |
| 20260905122043 | 25 | 60 | 1.6 | 3.2 | 0.00 | 0.00 | 0.00 | 97 | 1013.6 |
| 20260905121538 | 25 | 54 | 1.6 | 3.2 | 0.00 | 0.00 | 0.00 | 97 | 1013.8 |